Regional Weather Roundup
Issued by NWS

Home | Current Version | Previous Version | Text Only | Print | Product List | Glossary On
Versions: 1 2 3 4 5 6 7 8 9 10 11 12 13 14 15 16 17 18 19 20 21 22 23 24 25 26 27 28 29 30 31 32 33 34 35 36 37 38 39 40 41 42 43 44 45 46 47 48 49 50
000
ASUS43 KDTX 171901
RWRMI
MICHIGAN HOURLY REGIONAL WEATHER ROUNDUP
NATIONAL WEATHER SERVICE DETROIT/PONTIAC MI
300 PM EDT TUE OCT 17 2017

NOTE: "FAIR" INDICATES FEW OR NO CLOUDS BELOW 12,000 FEET WITH NO
SIGNIFICANT WEATHER AND/OR OBSTRUCTION TO VISIBILITY.

MIZ047>049-052>055-059>063-066>070-074>076-081>083-172000-
SOUTHEAST LOWER MICHIGAN

CITY           SKY/WX    TMP DP  RH WIND       PRES   REMARKS
ADRIAN         SUNNY     66  39  37 W14G25    30.20F
ALMA           SUNNY     69  42  38 SW17G24   30.09S
ANN ARBOR      SUNNY     67  41  38 S18G25    30.16F
BAD AXE        SUNNY     67  40  37 W18G29    30.05F
CARO           SUNNY     69  41  35 SW20G29   30.05F
DETROIT CITY   SUNNY     67  41  38 SW15G25   30.15F
DETROIT        PTSUNNY   68  41  37 SW17G28   30.17F
FLINT          SUNNY     69  41  36 SW20G26   30.09F
GROSSE ILE     SUNNY     67  42  39 SW14G22   30.16F
HILLSDALE      SUNNY     66  37  34 SW14G20   30.19F
HOWELL         SUNNY     68  41  36 W20G25    30.13F

CITY           SKY/WX    TMP DP  RH WIND       PRES   REMARKS
JACKSON        SUNNY     67  41  38 SW22G28   30.16F
LAMBERTVILLE   SUNNY     69  39  33 SW12G18   30.19F
LANSING        SUNNY     69  39  33 SW23G33   30.12F
LAPEER         FAIR      68  40  36 W16G30    30.09F
MASON          SUNNY     69  41  36 SW15G21   30.14F
MONROE         SUNNY     68  38  32 SW15G24   30.18F
MT. CLEMENS    PTSUNNY   69  44  39 SW16G23   30.12F
PONTIAC        PTSUNNY   67  41  38 SW20G28   30.12F
PORT HOPE        N/A     66  43  43 W16G26    30.02S
PORT HURON     SUNNY     68  39  34 SW12G22   30.10F
TRI CITIES     SUNNY     69  47  45 SW17G31   30.07S
MIDLAND        FAIR      70  47  42 W15G25    30.05S
TROY           SUNNY     69  39  32 SW15G24   30.15F
SAGINAW HB     SUNNY     68  43  40 SW17G26   30.05F
$$
MIZ043>046-050>051-056>058-064>065-071>073-077>080-172000-
SOUTHWEST LOWER MICHIGAN

CITY           SKY/WX    TMP DP  RH WIND       PRES   REMARKS
BATTLE CREEK     N/A     67  43  41 SW22      30.17F
BENTON HARBOR  SUNNY     67  43  41 SW16G29   30.17F
BIG RAPIDS     SUNNY     65  43  45 W17       30.07S
COLDWATER      SUNNY     67  38  34 SW13G22   30.19F
FREMONT        FAIR      64  47  55 SW18G28   30.08F
HOLLAND        SUNNY     64  48  56 SW22G36   30.14F
GRAND RAPIDS   MOSUNNY   66  46  48 W26G33    30.12F
IONIA          FAIR      69  41  36 SW25G32   30.10F
KALAMAZOO      SUNNY     68  40  35 SW16G23   30.18F
LUDINGTON      SUNNY     61  47  60 SW15      30.07F
MARSHALL       SUNNY     67  43  41 SW15      30.16F
MOUNT PLEASANT SUNNY     70  44  40 W14G23    30.05F
MUSKEGON       MOSUNNY   65  50  58 SW20      30.12F
SOUTH HAVEN    SUNNY     65  43  44 SW20G25   30.16F
$$
MIZ016>042-172000-
NORTHERN LOWER MICHIGAN

CITY           SKY/WX    TMP DP  RH WIND       PRES   REMARKS
ALPENA         SUNNY     68  46  45 SW12      29.98F
BEAVER ISLAND  CLOUDY    61  50  66 W16       29.99F
BELLAIRE       MOSUNNY   65  46  51 SW8       30.02S
CADILLAC       SUNNY     66  43  42 SW14      30.04F
CHARLEVOIX     MOSUNNY   61  48  62 SW13      30.03S
FRANKFORT      SUNNY     61  49  65 SW13G18   30.05S
GAYLORD        SUNNY     63  44  50 W13G24    30.00F
GRAYLING       SUNNY     65  44  46 W9        30.02F
HARBOR SPRINGS SUNNY     60  48  64 W10G23    30.00S
HOUGHTON LAKE  SUNNY     65  46  50 W13       30.04F
MANISTEE       SUNNY     63  47  55 W13       30.06S
OSCODA         SUNNY     70  44  39 W17       29.99S
PELLSTON       SUNNY     62  48  60 W15G23    30.00R
ROGERS CITY    SUNNY     68  47  46 W8        29.97F
TRAVERSE CITY  PTSUNNY   67  46  47 SW13G20   30.01F
$$
MIZ007>008-015-172000-
EASTERN UPPER MICHIGAN

CITY           SKY/WX    TMP DP  RH WIND       PRES   REMARKS
KINROSS        SUNNY     66  41  40 NW12      29.95S
MACKINAC ISLAN CLOUDY    60  48  64 SW14G21   29.98R
NEWBERRY       SUNNY     65  43  45 W9        29.96S
S. S. MARIE    SUNNY     63  45  51 W9        29.95S
$$
MIZ004>006-011>014-085-172000-
CENTRAL UPPER MICHIGAN

CITY           SKY/WX    TMP DP  RH WIND       PRES   REMARKS
MANISTIQUE     SUNNY     62  44  50 S8        29.97F
ESCANABA       MOSUNNY   60  49  66 S8        29.98F
SAWYER-GWINN   SUNNY     68  36  30 W10       29.97S
$$
MIZ001>003-009>011-084-172000-
WESTERN UPPER MICHIGAN

CITY           SKY/WX    TMP DP  RH WIND       PRES   REMARKS
IRON MOUNTAIN  MOSUNNY   67  35  30 W6        29.97F
HOUGHTON       SUNNY     62  41  46 W10       29.95F
COPPER HARBOR    N/A     59  49  69 N12       29.94F
IRONWOOD       SUNNY     69  34  27 SW7       29.95F
$$

ABBREVIATIONS USED IN REMARKS
   TC - TEMPERATURE IN CELSIUS
  WCI - WIND CHILL INDEX
   HX - HEAT INDEX
  VSB - VISIBILITY





USA.gov is the U.S. government's official web portal to all federal, state and local government web resources and services.